Location: Boca do Mato
(22.9085°S, 43.2930°W)
Time: 22:33:06
(UTC+00:00)

Cosmos 2322 Rocket - Pass Details

Date: 14 July 2020
Orbit: 832 x 851 km, 71.0° (Epoch: 10 August)

Event Time Altitude Azimuth Distance (km) Brightness Sun altitude
Rises 08:10:38 0° 357° (N) 3,397 5.5 -18.9°
Reaches altitude 10° 08:13:09 10° 3° (N) 2,469 4.9 -18.3°
Maximum altitude 08:18:34 48° 76° (ENE) 1,109 3.3 -17.1°
Drops below altitude 10° 08:24:03 10° 148° (SSE) 2,493 4.8 -15.9°
Sets 08:26:35 0° 153° (SSE) 3,433 5.5 -15.3°
